EW7736 Weather Reports


Display with metric or nautical units.
time (UTC)temp
F
wind
direction
speed
MPH
gust
MPH
rain 1hr
in
rain 24hr
in
rain mn
in
humidity
%
barometer
mb
20260505182612 73 90 6.0 14.0 0.00 0.00 0.00 47 1008.0
20260505181547 74 98 5.0 13.0 0.00 0.00 0.00 46 1008.1
20260505180606 75 96 5.0 15.0 0.00 0.00 0.00 48 1008.0
20260505175551 75 100 6.0 16.0 0.00 0.00 0.00 46 1008.1
20260505174548 75 46 6.0 16.0 0.00 0.00 0.00 45 1007.9
20260505173543 74 93 5.0 17.0 0.00 0.00 0.00 47 1007.8
20260505172516 75 20 6.0 17.0 0.00 0.00 0.00 46 1007.9
20260505171454 75 58 7.0 16.0 0.00 0.00 0.00 46 1008.0
20260505170430 75 65 6.0 16.0 0.00 0.00 0.00 46 1008.0
20260505165401 74 91 6.0 15.0 0.00 0.00 0.00 48 1008.3
20260505164401 74 47 5.0 20.0 0.00 0.00 0.00 47 1008.2
20260505163424 74 100 6.0 20.0 0.00 0.00 0.00 47 1008.3
20260505161227 73 346 8.0 16.0 0.00 0.00 0.00 48 1008.4
20260505160217 73 105 7.0 20.0 0.00 0.00 0.00 48 1008.6
20260505153259 74 40 5.0 19.0 0.00 0.00 0.00 49 1008.5
20260505152322 73 25 7.0 19.0 0.00 0.00 0.00 48 1008.5
20260505150112 71 346 7.0 21.0 0.00 0.00 0.00 50 1008.4
20260505124820 67 46 4.0 11.0 0.00 0.00 0.00 58 1009.2
20260505123836 66 39 4.0 10.0 0.00 0.00 0.00 59 1009.3
20260505121650 65 43 4.0 13.0 0.00 0.00 0.00 60 1009.4
20260505120707 65 44 3.0 12.0 0.00 0.00 0.00 61 1009.4
20260505115718 64 55 3.0 12.0 0.00 0.00 0.00 62 1009.4
20260505114739 64 50 3.0 9.0 0.00 0.00 0.00 62 1009.4
20260505113722 63 42 3.0 10.0 0.00 0.00 0.00 63 1009.3
20260505112719 62 51 3.0 10.0 0.00 0.00 0.00 63 1009.3
20260505111744 62 40 1.0 7.0 0.00 0.00 0.00 63 1009.1
20260505110738 62 51 2.0 7.0 0.00 0.00 0.00 63 1009.0
20260505101650 62 29 3.0 7.0 0.00 0.00 0.00 63 1008.6
20260505100626 62 53 3.0 7.0 0.00 0.00 0.00 63 1008.4
20260505094516 61 43 2.0 8.0 0.00 0.00 0.00 62 1008.2
20260505093453 61 42 2.0 7.0 0.00 0.00 0.00 62 1008.2
20260505092449 61 46 2.0 7.0 0.00 0.00 0.00 62 1008.0
20260505091452 61 51 2.0 7.0 0.00 0.00 0.00 61 1008.0
20260505090427 60 39 2.0 6.0 0.00 0.00 0.00 60 1008.0
20260505085447 60 46 1.0 5.0 0.00 0.00 0.00 58 1008.0
20260505084435 60 49 1.0 4.0 0.00 0.00 0.00 56 1007.9
20260505083428 60 38 1.0 6.0 0.00 0.00 0.00 55 1008.0
20260505082449 60 42 1.0 6.0 0.00 0.00 0.00 54 1007.9
20260505081513 61 40 1.0 5.0 0.00 0.00 0.00 54 1007.9
20260505080504 61 37 1.0 6.0 0.00 0.00 0.00 58 1007.8
20260505074314 62 51 1.0 4.0 0.00 0.00 0.00 61 1008.3
20260505073308 62 46 1.0 9.0 0.00 0.00 0.00 61 1008.4
20260505072304 63 95 3.0 9.0 0.00 0.00 0.00 60 1008.7
20260505071236 63 75 3.0 6.0 0.00 0.00 0.00 60 1008.3
20260505070248 63 34 2.0 7.0 0.00 0.00 0.00 60 1007.9
20260505065214 63 50 3.0 7.0 0.00 0.00 0.00 60 1007.5
20260505063025 63 46 2.0 5.0 0.00 0.00 0.00 60 1007.4
20260505062008 63 45 2.0 6.0 0.00 0.00 0.00 60 1007.5
20260505055907 63 52 2.0 6.0 0.00 0.00 0.00 60 1007.6
20260505054859 63 30 2.0 6.0 0.00 0.00 0.00 60 1007.7
20260505053857 63 45 3.0 6.0 0.00 0.00 0.00 59 1007.8
20260505052841 63 48 2.0 6.0 0.00 0.00 0.00 59 1007.8
20260505051823 63 39 2.0 6.0 0.00 0.00 0.00 59 1008.0
20260505050818 63 37 1.0 6.0 0.00 0.00 0.00 59 1007.8
20260505040821 63 18 2.0 5.0 0.00 0.00 0.00 59 1007.8
20260505034641 63 41 1.0 4.0 0.00 0.00 0.00 59 1007.8
20260505033628 63 55 1.0 4.0 0.00 0.00 0.00 59 1007.8
20260505032651 63 35 1.0 6.0 0.00 0.00 0.00 59 1007.8
20260505031630 64 41 2.0 6.0 0.00 0.00 0.00 58 1007.9
20260505030632 64 39 2.0 6.0 0.00 0.00 0.00 58 1008.0
20260505023350 65 48 2.0 6.0 0.00 0.00 0.00 57 1008.1
20260505022346 65 42 2.0 6.0 0.00 0.00 0.00 57 1008.2
20260505021411 65 48 2.0 6.0 0.00 0.00 0.00 57 1008.1
20260505020416 66 61 2.0 10.0 0.00 0.00 0.00 56 1008.2
20260505014328 66 50 3.0 10.0 0.00 0.00 0.00 55 1008.3
20260505013343 66 32 2.0 6.0 0.00 0.00 0.00 55 1008.1
20260505011222 67 44 2.0 7.0 0.00 0.00 0.00 55 1008.0
20260505010225 67 31 2.0 6.0 0.00 0.00 0.00 55 1007.8
20260505005200 67 50 2.0 10.0 0.00 0.00 0.00 55 1007.6
20260505004225 67 31 3.0 10.0 0.00 0.00 0.00 54 1007.6
20260505003156 67 39 2.0 7.0 0.00 0.00 0.00 54 1007.5
20260505002214 68 34 2.0 6.0 0.00 0.00 0.00 53 1007.4
20260505001231 68 55 2.0 7.0 0.00 0.00 0.00 53 1007.6
20260505000247 68 51 3.0 7.0 0.00 0.00 0.00 53 1007.5
20260504235217 68 49 2.0 7.0 0.00 0.00 0.00 53 1007.6
20260504234144 68 57 2.0 9.0 0.00 0.00 0.00 53 1007.8
20260504233200 69 47 3.0 9.0 0.00 0.00 0.00 51 1007.4
20260504232148 69 30 4.0 12.0 0.00 0.00 0.00 51 1007.4
20260504231207 69 18 4.0 15.0 0.00 0.00 0.00 51 1007.6
20260504230152 69 94 5.0 15.0 0.00 0.00 0.00 51 1007.7
20260504225209 70 93 6.0 14.0 0.00 0.00 0.00 49 1007.6
20260504224220 71 60 5.0 13.0 0.00 0.00 0.00 50 1007.5
20260504222039 71 60 5.0 12.0 0.00 0.00 0.00 48 1007.5
20260504221053 72 27 5.0 12.0 0.00 0.00 0.00 47 1007.4
20260504220052 72 39 3.0 8.0 0.00 0.00 0.00 48 1007.4
20260504215050 72 103 3.0 8.0 0.00 0.00 0.00 48 1007.4
20260504214051 71 101 4.0 9.0 0.00 0.00 0.00 47 1007.4
20260504213027 71 57 3.0 12.0 0.00 0.00 0.00 49 1007.4
20260504210946 71 46 5.0 14.0 0.00 0.00 0.00 48 1007.4
20260504205948 71 108 5.0 14.0 0.00 0.00 0.00 49 1007.3
20260504205013 71 90 4.0 13.0 0.00 0.00 0.00 47 1007.5
20260504204028 72 89 4.0 11.0 0.00 0.00 0.00 48 1007.4
20260504203040 72 102 5.0 15.0 0.00 0.00 0.00 48 1007.5
20260504202103 71 77 4.0 15.0 0.00 0.00 0.00 47 1007.6
20260504201114 72 30 4.0 12.0 0.00 0.00 0.00 46 1007.6
20260504200052 71 30 4.0 11.0 0.00 0.00 0.00 46 1007.5
20260504195058 72 103 5.0 17.0 0.00 0.00 0.00 47 1007.6
20260504194111 71 36 5.0 17.0 0.00 0.00 0.00 47 1007.7
20260504193107 72 66 6.0 15.0 0.00 0.00 0.00 49 1007.8
20260504192040 71 29 4.0 11.0 0.00 0.00 0.00 48 1007.8
20260504191057 71 91 4.0 11.0 0.00 0.00 0.00 47 1007.9
20260504190044 71 33 4.0 11.0 0.00 0.00 0.00 47 1008.0
20260504183931 71 51 3.0 13.0 0.00 0.00 0.00 48 1008.1